This is the latest recevied weather packets stored in our database for station/object OK2ZA-6. If no packets are shown the sender has not sent any weather packets the latest 1 day(s).
| Time | Temp. | Humidity | Pressure | Rain* | Wind** | Luminosity | Snow |
|---|---|---|---|---|---|---|---|
| 1778001004 | 21.67° C | 45% | 1004.7 hPa | 0 mm | 5.81 m/s, 134° | - | - |
| 1778000404 | 22.22° C | 43% | 1004.7 hPa | 0 mm | 5.81 m/s, 132° | - | - |
| 1777999803 | 22.78° C | 42% | 1004.7 hPa | 0 mm | 4.92 m/s, 133° | - | - |
| 1777999204 | 23.33° C | 41% | 1004.6 hPa | 0 mm | 4.47 m/s, 125° | - | - |
| 1777998603 | 23.33° C | 41% | 1004.7 hPa | 0 mm | 4.92 m/s, 121° | - | - |
| 1777998003 | 23.33° C | 40% | 1004.6 hPa | 0 mm | 4.47 m/s, 116° | - | - |
| 1777997403 | 23.89° C | 38% | 1004.7 hPa | 0 mm | 5.36 m/s, 115° | - | - |
| 1777996804 | 23.89° C | 34% | 1004.7 hPa | 0 mm | 5.36 m/s, 133° | - | - |
| 1777996203 | 23.89° C | 33% | 1004.8 hPa | 0 mm | 4.92 m/s, 127° | - | - |
| 1777995604 | 23.89° C | 32% | 1004.8 hPa | 0 mm | 4.02 m/s, 127° | - | - |
| 1777995003 | 23.89° C | 31% | 1004.9 hPa | 0 mm | 5.36 m/s, 119° | - | - |
| 1777994404 | 23.89° C | 32% | 1005.1 hPa | 0 mm | 4.47 m/s, 132° | - | - |
| 1777993803 | 23.89° C | 33% | 1005.2 hPa | 0 mm | 4.47 m/s, 123° | - | - |
| 1777993203 | 24.44° C | 32% | 1005.4 hPa | 0 mm | 4.47 m/s, 116° | - | - |
| 1777992603 | 23.89° C | 32% | 1005.5 hPa | 0 mm | 4.47 m/s, 126° | - | - |
| 1777992003 | 23.89° C | 33% | 1005.7 hPa | 0 mm | 5.36 m/s, 135° | - | - |
| 1777991404 | 23.89° C | 33% | 1005.9 hPa | 0 mm | 4.92 m/s, 130° | - | - |
| 1777990803 | 23.33° C | 34% | 1006 hPa | 0 mm | 5.81 m/s, 149° | - | - |
| 1777990203 | 23.89° C | 33% | 1006.1 hPa | 0 mm | 4.92 m/s, 134° | - | - |
| 1777989604 | 23.89° C | 36% | 1006.2 hPa | 0 mm | 4.92 m/s, 141° | - | - |
| 1777989003 | 23.33° C | 36% | 1006.4 hPa | 0 mm | 5.36 m/s, 149° | - | - |
| 1777988404 | 23.33° C | 37% | 1006.5 hPa | 0 mm | 4.92 m/s, 136° | - | - |
| 1777987804 | 23.33° C | 39% | 1006.6 hPa | 0 mm | 4.02 m/s, 132° | - | - |
| 1777987203 | 22.78° C | 42% | 1006.7 hPa | 0 mm | 3.58 m/s, 129° | - | - |
| 1777986604 | 22.78° C | 44% | 1007 hPa | 0 mm | 4.02 m/s, 135° | - | - |
* Rain latest hour (hover to see other rain measurements)
** Current wind speed in m/s (hover to see current wind gust speed)